Location: El Centro
(32.7920°N, 115.5620°W)
Time: 22:35:55
(UTC-07:00)

Amateur Radio Satellites - All Passes

Search period start: 22 July 2014 22:05
Search period end: 23 July 2014 22:05
Location: El Centro, 32.7920°N, 115.5620°W

Satellite Date Start Highest point End Downlink Frequencies (MHz)
Time Altitude Azimuth
HO-68 22 Jul 22:10:05 22:16:09 30° 263° (W) 22:22:16 435.675 MHz FM
MaSat-1 22 Jul 22:34:09 22:37:45 86° 292° (WNW) 22:42:04 437.345 MHz
Oscar 11 22 Jul 22:36:42 22:40:09 23° 264° (W) 22:43:37 145.825 FM, Beacon 2401.500 USB
FUNcube-1 22 Jul 22:38:01 22:42:27 70° 259° (WSW) 22:46:47 145.950 - 145.970 MHz USB
RS-15 22 Jul 23:09:42 23:20:21 50° 54° (NE) 23:31:21 29.354 - 29.394 USB, Beacon 29.352 USB
SO-50 22 Jul 23:36:24 23:41:11 82° 243° (WSW) 23:46:00 436.795 FM
Lituanica SAT-1 22 Jul 23:56:01 23:58:09 63° 318° (NW) 00:00:17 437.275 MHz beacon
UOSAT-12 23 Jul 00:35:09 00:39:11 27° 54° (NE) 00:43:10 437.025 FM, 437.400 FM
ISS 23 Jul 00:39:02 00:41:57 28° 130° (SE) 00:44:53 145.800 FM
Sapphire 23 Jul 00:43:27 00:46:31 16° 104° (ESE) 00:49:36 437.095 MHz 1200 baud AX-25 AFSK
PCSat 23 Jul 01:15:28 01:20:21 36° 109° (ESE) 01:25:16 145.825 MHz
RS-15 23 Jul 01:22:21 01:32:26 42° 252° (WSW) 01:42:57 29.354 - 29.394 USB, Beacon 29.352 USB
Oscar 19 23 Jul 01:25:06 01:29:09 23° 96° (E) 01:33:12 437.125 CW, 437.150 USB
Oscar 16 23 Jul 01:51:34 01:56:31 46° 100° (E) 02:01:27 437.025 USB, Beacon 2401.1428
ITAMSAT 1 23 Jul 01:59:23 02:03:21 22° 96° (E) 02:07:18 435.822 SSB
UOSAT-12 23 Jul 02:15:17 02:19:14 27° 249° (WSW) 02:23:07 437.025 FM, 437.400 FM
ISS 23 Jul 02:15:59 02:18:40 22° 324° (NW) 02:21:22 145.800 FM
AO-27 23 Jul 02:16:14 02:20:55 34° 98° (E) 02:25:34 436.795 MHz FM
JAS-1B 23 Jul 02:18:55 02:26:41 29° 92° (E) 02:33:34 435.800 - 435.900 CW/SSB
Uribyol 2 23 Jul 02:19:53 02:24:41 39° 99° (E) 02:29:28 436.500 FM
Sapphire 23 Jul 02:24:08 02:29:24 54° 298° (WNW) 02:34:43 437.095 MHz 1200 baud AX-25 AFSK
AO-Echo 23 Jul 02:33:05 02:38:05 53° 100° (E) 02:42:54 ?
PCSat 23 Jul 02:59:21 03:03:47 25° 304° (NW) 03:08:14 145.825 MHz
Oscar 19 23 Jul 03:03:53 03:08:28 33° 289° (WNW) 03:13:04 437.125 CW, 437.150 USB
TMSAT-1 23 Jul 03:20:42 03:25:42 41° 99° (E) 03:30:39 436.925 FM
Oscar 16 23 Jul 03:32:10 03:35:27 17° 294° (WNW) 03:38:45 437.025 USB, Beacon 2401.1428
ITAMSAT 1 23 Jul 03:38:12 03:42:51 35° 289° (WNW) 03:47:29 435.822 SSB
Gurwin Techsat 1B 23 Jul 03:40:33 03:45:53 87° 283° (WNW) 03:51:10 435.225 FM
OPAL 23 Jul 03:53:31 03:58:29 87° 74° (ENE) 04:03:27 ?
AO-27 23 Jul 03:56:10 04:00:11 23° 292° (WNW) 04:04:12 436.795 MHz FM
Uribyol 2 23 Jul 04:00:08 04:03:51 20° 293° (WNW) 04:07:33 436.500 FM
AO-7 23 Jul 04:04:22 04:11:14 28° 97° (E) 04:18:00 29.400 - 29.500 MHz
JAS-1B 23 Jul 04:08:17 04:17:35 58° 290° (WNW) 04:25:39 435.800 - 435.900 CW/SSB
AO-Echo 23 Jul 04:13:33 04:16:18 15° 295° (WNW) 04:19:01 ?
Uosat F 23 Jul 04:24:25 04:29:02 36° 99° (E) 04:33:37 435.120 FM
TMSAT-1 23 Jul 05:01:30 05:05:16 20° 293° (WNW) 05:09:01 436.925 FM
AO-7 23 Jul 05:56:11 06:04:13 54° 292° (WNW) 06:12:11 29.400 - 29.500 MHz
JAS-1B 23 Jul 06:03:44 06:05:46 11° 310° (NW) 06:07:46 435.800 - 435.900 CW/SSB
Uosat F 23 Jul 06:03:53 06:07:31 21° 293° (WNW) 06:11:09 435.120 FM
STRAND 1 23 Jul 06:06:25 06:11:01 34° 71° (ENE) 06:15:37 ?
JAS-2 23 Jul 06:06:36 06:11:20 24° 93° (E) 06:15:41 435.800 - 435.900 CW/SSB, 435.910 FM
Hamsat 23 Jul 06:13:46 06:17:45 37° 98° (E) 06:21:45 145.90 MHz
KITSAT 1 23 Jul 06:28:54 06:36:23 43° 109° (ESE) 06:43:53 435.175 FM
PANSAT 23 Jul 06:51:09 06:53:59 20° 161° (SSE) 06:56:49 not established
MaSat-1 23 Jul 06:59:11 07:00:45 11° 52° (NE) 07:02:18 437.345 MHz
Lituanica SAT-1 23 Jul 07:45:27 07:47:37 58° 226° (SW) 07:49:46 437.275 MHz beacon
STRAND 1 23 Jul 07:46:12 07:50:11 23° 264° (W) 07:54:11 ?
Hamsat 23 Jul 07:50:59 07:53:23 15° 291° (WNW) 07:55:46 145.90 MHz
JAS-2 23 Jul 07:51:00 07:56:32 36° 291° (WNW) 08:01:32 435.800 - 435.900 CW/SSB, 435.910 FM
SO-67 23 Jul 07:53:18 07:56:47 83° 282° (WNW) 08:00:15 435.3500 MHz FM
KITSAT 1 23 Jul 08:24:24 08:31:45 38° 305° (NW) 08:39:10 435.175 FM
PANSAT 23 Jul 08:30:11 08:33:47 39° 173° (S) 08:37:24 not established
MaSat-1 23 Jul 08:33:31 08:38:52 90° 243° (WSW) 08:43:53 437.345 MHz
Saudisat 1A 23 Jul 08:43:55 08:48:18 71° 116° (ESE) 08:52:42 436.775 MHz
ISS 23 Jul 08:47:30 08:50:48 52° 42° (NE) 08:54:05 145.800 FM
HO-68 23 Jul 09:41:16 09:48:24 69° 103° (ESE) 09:55:28 435.675 MHz FM
PCSat 23 Jul 10:09:27 10:11:53 13° 50° (NE) 10:14:20 145.825 MHz
PANSAT 23 Jul 10:10:06 10:13:43 40° 186° (S) 10:17:20 not established
ISS 23 Jul 10:26:24 10:27:09 11° 235° (SW) 10:27:54 145.800 FM
Saudisat 1A 23 Jul 10:26:58 10:28:20 11° 312° (NW) 10:29:42 436.775 MHz
Oscar 11 23 Jul 10:27:42 10:32:03 86° 102° (ESE) 10:36:23 145.825 FM, Beacon 2401.500 USB
FUNcube-1 23 Jul 10:32:03 10:35:42 29° 98° (E) 10:39:21 145.950 - 145.970 MHz USB
Sapphire 23 Jul 11:16:32 11:21:45 46° 61° (ENE) 11:26:55 437.095 MHz 1200 baud AX-25 AFSK
HO-68 23 Jul 11:30:37 11:35:23 20° 299° (WNW) 11:40:08 435.675 MHz FM
PCSat 23 Jul 11:50:29 11:55:55 80° 247° (WSW) 12:01:18 145.825 MHz
PANSAT 23 Jul 11:50:35 11:53:32 21° 198° (SSW) 11:56:28 not established
FUNcube-1 23 Jul 12:09:09 12:11:52 17° 291° (WNW) 12:14:34 145.950 - 145.970 MHz USB
Oscar 19 23 Jul 12:38:09 12:41:59 22° 68° (ENE) 12:45:49 437.125 CW, 437.150 USB
AO-40 23 Jul 12:46:18 04:27:48 47° 182° (S) 13:25:30 Beacon 2401.320
JAS-1B 23 Jul 12:59:03 13:04:22 18° 56° (NE) 13:10:01 435.800 - 435.900 CW/SSB
Sapphire 23 Jul 13:01:04 13:04:45 19° 255° (WSW) 13:08:26 437.095 MHz 1200 baud AX-25 AFSK
Oscar 16 23 Jul 13:04:17 13:09:05 43° 72° (ENE) 13:13:54 437.025 USB, Beacon 2401.1428
ITAMSAT 1 23 Jul 13:13:21 13:17:20 23° 68° (ENE) 13:21:19 435.822 SSB
RS-15 23 Jul 13:27:33 13:38:08 49° 109° (ESE) 13:48:23 29.354 - 29.394 USB, Beacon 29.352 USB
AO-27 23 Jul 13:30:07 13:34:47 34° 71° (ENE) 13:39:27 436.795 MHz FM
Uribyol 2 23 Jul 13:33:28 13:38:15 38° 71° (ENE) 13:43:01 436.500 FM
AO-Echo 23 Jul 13:41:09 13:46:05 44° 72° (ENE) 13:51:06 ?
SO-50 23 Jul 13:47:11 13:51:37 85° 298° (WNW) 13:56:09 436.795 FM
Oscar 19 23 Jul 14:16:25 14:21:03 35° 262° (W) 14:25:43 437.125 CW, 437.150 USB
KITSAT 1 23 Jul 14:30:38 14:32:04 11° 36° (NE) 14:33:29 435.175 FM
TMSAT-1 23 Jul 14:37:07 14:42:04 42° 72° (ENE) 14:47:02 436.925 FM
UOSAT-12 23 Jul 14:42:45 14:46:11 21° 110° (ESE) 14:49:41 437.025 FM, 437.400 FM
JAS-1B 23 Jul 14:45:04 14:53:13 86° 75° (ENE) 15:02:47 435.800 - 435.900 CW/SSB
Oscar 16 23 Jul 14:45:14 14:48:34 18° 266° (W) 14:51:55 437.025 USB, Beacon 2401.1428
ITAMSAT 1 23 Jul 14:51:48 14:56:33 36° 262° (W) 15:01:20 435.822 SSB
Gurwin Techsat 1B 23 Jul 14:57:08 15:02:26 86° 257° (WSW) 15:07:47 435.225 FM
AO-7 23 Jul 14:59:04 15:05:42 27° 61° (ENE) 15:12:21 29.400 - 29.500 MHz
AO-27 23 Jul 15:10:10 15:14:16 23° 264° (W) 15:18:24 436.795 MHz FM
Uribyol 2 23 Jul 15:13:58 15:17:46 20° 265° (W) 15:21:35 436.500 FM
AO-Echo 23 Jul 15:21:26 15:24:59 18° 266° (W) 15:28:35 ?
Uosat F 23 Jul 15:33:30 15:37:56 32° 70° (ENE) 15:42:24 435.120 FM
RS-15 23 Jul 15:40:05 15:50:27 43° 308° (NW) 16:00:42 29.354 - 29.394 USB, Beacon 29.352 USB
Oscar 10/S400 23 Jul 15:40:31 06:32:14 50° 239° (WSW) 15:47:21 145.825 - 145.975 CW/USB, Beacon 145.810 USB
OPAL 23 Jul 16:08:00 16:12:34 33° 100° (E) 16:17:09 ?
TMSAT-1 23 Jul 16:18:24 16:22:06 19° 266° (W) 16:25:48 436.925 FM
KITSAT 1 23 Jul 16:21:41 16:29:32 52° 59° (ENE) 16:37:18 435.175 FM
UOSAT-12 23 Jul 16:21:58 16:26:05 32° 305° (NW) 16:30:18 437.025 FM, 437.400 FM
JAS-1B 23 Jul 16:39:53 16:44:52 17° 273° (W) 16:50:17 435.800 - 435.900 CW/SSB
AO-7 23 Jul 16:49:42 16:57:53 59° 257° (WSW) 17:06:08 29.400 - 29.500 MHz
Hamsat 23 Jul 17:04:18 17:06:47 16° 69° (ENE) 17:09:17 145.90 MHz
Uosat F 23 Jul 17:12:45 17:16:41 23° 264° (W) 17:20:39 435.120 FM
Saudisat 1A 23 Jul 17:15:55 17:18:50 17° 51° (NE) 17:21:45 436.775 MHz
OPAL 23 Jul 17:47:17 17:51:13 23° 293° (WNW) 17:55:11 ?
JAS-2 23 Jul 17:54:41 18:02:21 60° 73° (ENE) 18:09:51 435.800 - 435.900 CW/SSB, 435.910 FM
RS-15 23 Jul 18:03:19 18:06:55 12° 338° (NNW) 18:10:31 29.354 - 29.394 USB, Beacon 29.352 USB
KITSAT 1 23 Jul 18:17:49 18:24:28 29° 254° (WSW) 18:31:05 435.175 FM
STRAND 1 23 Jul 18:22:37 18:25:44 16° 94° (E) 18:28:50 ?
SO-67 23 Jul 18:23:29 18:25:35 15° 71° (ENE) 18:27:41 435.3500 MHz FM
Hamsat 23 Jul 18:38:42 18:42:27 32° 262° (W) 18:46:13 145.90 MHz
Saudisat 1A 23 Jul 18:54:27 18:58:35 41° 246° (WSW) 19:02:40 436.775 MHz
JAS-2 23 Jul 19:41:28 19:47:33 25° 266° (W) 19:53:36 435.800 - 435.900 CW/SSB, 435.910 FM
SO-67 23 Jul 19:55:46 19:58:27 21° 264° (W) 20:01:09 435.3500 MHz FM
STRAND 1 23 Jul 20:00:14 20:05:06 46° 287° (WNW) 20:09:56 ?
HO-68 23 Jul 20:05:30 20:11:42 33° 66° (ENE) 20:17:54 435.675 MHz FM
RS-15 23 Jul 20:24:33 20:27:05 11° 19° (NNE) 20:29:37 29.354 - 29.394 USB, Beacon 29.352 USB
Oscar 11 23 Jul 21:18:32 21:22:30 37° 73° (ENE) 21:26:28 145.825 FM, Beacon 2401.500 USB
FUNcube-1 23 Jul 21:25:29 21:28:03 15° 69° (ENE) 21:30:36 145.950 - 145.970 MHz USB
HO-68 23 Jul 21:52:32 21:59:10 40° 260° (W) 22:05:50 435.675 MHz FM
